Showing default

FLOCK 4Q 34, 58316

Orbit data source: Space-Track

FLOCK 4Q 34, 58316 is a payload satellite owned by Planet (US) in SSO that was launched on Sat, 11 Nov 2023 UTC via an FALCON 9 launch vehicle from the Air Force Western Test Range (AFWTR). Payload-class satellites include a variety of spacecraft equipped with specific instruments for various scientific and technological missions. These include communications satellites like Starlink; space stations such as the ISS; scientific satellites like the Hubble; Earth observation satellites from companies like Planet Labs, Umbra, and HawkEye 360; GPS; miniature CubeSats for education and research; and military/defense satellites.

Loading next visibility...
Identifier
58316, 2023-174BN
Orbit
SSO
Country
Flag of USUS
Related business
Manufacturer
Planet
Mission
Non-operational Commercial Imaging
Bus & Motor
CUBESAT 3U, Unknown motor
Mass
5.7 kg wet, 5.7 kg dry
Launch date (UTC)
2023-11-11 (3 years ago)
Launch vehicle
FALCON 9
Launch site
Air Force Western Test Range (AFWTR)
Object type
Payload
Rocket body
Debris
Shape & HBR
Box + 2 Pan, 1.0 m
Radar Cross Section
0.072 m², Medium (>0.1 m² and < 1m²)

Expand to show TLE details & history
Last TLE update: 2 days ago

TLE from 2 days ago
0 FLOCK 4Q 34
1 58316U 23174BN  26171.19755730  .00310173  00000-0  15712-2 0  9997
2 58316  97.3779 265.8331 0006475 212.0314 148.0561 15.80683939146468
Epoch: 2026-06-20T04:44Z
TLE epoch observation values (Epoch: 2026-06-20T04:44:28.950Z)
Latitude
-0.00006°
Longitude
-73.70315°
Altitude
335.365 km
Speed
7.705 km/s
True Right ascension
17h 43m 19s
True Declination
0° 00' 00"
Sunlit
Object was in full shadow at epoch
Visualization orbit readout
Latitude
Unknown
Longitude
Unknown
Altitude
Unknown
Speed
Unknown
Apparent Right ascension
Unknown
Apparent Declination
Unknown
Sunlit
N/A
Visualization observer readout
Local Sidereal Time
21:52:28
Azimuth
Unknown
Elevation
Unknown
Doppler factor
Unknown
Orbital elements
Apogee altitude
329.73 km
Perigee altitude
321.049 km
Semi-major axis
6,703.527 km
Eccentricity
0.00065
Inclination
97.3779°
RAAN
265.8331°
Arg. of periapsis
212.0314°
True anomaly
148.09533°
Mean anomaly
148.0561°
Eccentric anomaly
148.07572°
Mean motion
3.95447 °/min
Orbital period
91.04 mins
BSTAR
0.0015712
Loading maneuver chart data...
Computing Atmospheric mass density...

Documentation

Showing up to 5 results
|